This is the latest recevied weather packets stored in our database for station/object NR0Q. If no packets are shown the sender has not sent any weather packets the latest 10 day(s).
| Time | Temp. | Humidity | Pressure | Rain* | Wind** | Luminosity | Snow |
|---|---|---|---|---|---|---|---|
| 1778132701 | 10.56° C | 61% | 0 hPa | 0 mm | - | - | - |
| 1778131802 | 10° C | 61% | 0 hPa | 0 mm | - | - | - |
| 1778130901 | 8.89° C | 66% | 0 hPa | 0 mm | - | - | - |
| 1778130001 | 8.33° C | 81% | 0 hPa | 0 mm | - | - | - |
| 1778129102 | 8.33° C | 80% | 0 hPa | 0 mm | - | - | - |
| 1778128201 | 8.33° C | 77% | 0 hPa | 0 mm | - | - | - |
| 1778127301 | 8.33° C | 77% | 0 hPa | 0 mm | - | - | - |
| 1778126401 | 8.33° C | 78% | 0 hPa | 0 mm | - | - | - |
| 1778125501 | 8.89° C | 77% | 0 hPa | 0 mm | - | - | - |
| 1778123702 | 10° C | 73% | 0 hPa | 0 mm | - | - | - |
| 1778122801 | 10° C | 68% | 1018.6 hPa | 0 mm | - | - | - |
| 1778121901 | 10.56° C | 66% | 1018.6 hPa | 0 mm | - | - | - |
| 1778121002 | 11.11° C | 64% | 1018.6 hPa | 0 mm | - | - | - |
| 1778120102 | 11.67° C | 62% | 1018.6 hPa | 0 mm | - | - | - |
| 1778119202 | 12.78° C | 58% | 1018.6 hPa | 0 mm | - | - | - |
| 1778118301 | 12.78° C | 56% | 1018.6 hPa | 0 mm | - | - | - |
| 1778117402 | 13.89° C | 51% | 1018.6 hPa | 0 mm | - | - | - |
| 1778116501 | 14.44° C | 48% | 1018.6 hPa | 0 mm | - | - | - |
| 1778115601 | 15.56° C | 47% | 1017.6 hPa | 0 mm | - | - | - |
| 1778114702 | 15.56° C | 45% | 1017.6 hPa | 0 mm | - | - | - |
| 1778113801 | 16.11° C | 44% | 1017.6 hPa | 0 mm | - | - | - |
| 1778112902 | 16.67° C | 41% | 1017.6 hPa | 0 mm | - | - | - |
| 1778112001 | 16.67° C | 39% | 1017.6 hPa | 0 mm | - | - | - |
| 1778111101 | 16.67° C | 37% | 1017.6 hPa | 0 mm | - | - | - |
| 1778110201 | 17.22° C | 40% | 1017.6 hPa | 0 mm | - | - | - |
* Rain latest hour (hover to see other rain measurements)
** Current wind speed in m/s (hover to see current wind gust speed)